Regional Weather Roundup
Issued by NWS

Home | Current Version | Previous Version | Graphics & Text | Print | Product List | Glossary On
Versions: 1 2 3 4 5 6 7 8 9 10 11 12 13 14 15 16 17 18 19 20 21 22 23 24 25 26 27 28 29 30 31 32 33 34 35 36 37 38 39 40 41 42 43 44 45 46 47 48 49 50
000
ASUS43 KDMX 241801
RWRIA

WEATHER ROUNDUP FOR IOWA
NATIONAL WEATHER SERVICE DES MOINES IA
100 PM CDT TUE APR 24 2018

NOTE: "FAIR" INDICATES FEW OR NO CLOUDS BELOW 12,000 FEET WITH NO
SIGNIFICANT WEATHER AND/OR OBSTRUCTIONS TO VISIBILITY.

* - THESE STATIONS ARE NOT NWS STATIONS...THUS NOT UNDER NWS
QUALITY CONTROL.  THEY ALSO DO NOT REPORT WEATHER SUCH
AS PRECIPITATION OR FOG.

IAZ001>003-012>014-020>022-031>034-043>046-241900-
   NORTHWEST IOWA

CITY           SKY/WX    TMP DP  RH WIND       PRES   REMARKS
CARROLL *      MOSUNNY   93  68  43 N12G20    30.11F HX  97
CHEROKEE *     PTSUNNY   65  43  44 N12       30.15F
DENISON *      PTSUNNY   70  34  26 NW10      30.13F
LE MARS *      CLOUDY    64  43  45 N15       30.16F
ORANGE CITY *  MOSUNNY   57  45  62 N13       30.19R
SHELDON *      CLOUDY    54  43  66 N13       30.17F
SIOUX CITY     CLOUDY    63  44  50 N16       30.16S
6HR MIN TEMP:  40; 6HR MAX TEMP:  65;

SPENCER        CLOUDY    59  43  55 N17       30.18S
6HR MIN TEMP:  35; 6HR MAX TEMP:  60;

STORM LAKE *     N/A     66  39  37 N12G17    30.14F
$$

IAZ055>058-069>071-079>083-090>094-241900-
   SOUTHWEST IOWA

CITY           SKY/WX    TMP DP  RH WIND       PRES   REMARKS
ATLANTIC *     MOSUNNY   72  34  25 VRB7      30.10F
AUDUBON *      MOSUNNY   72  34  25 NW7G17    30.12F
CLARINDA *     CLOUDY    75  32  20 N8G15     30.13F
COUNCIL BLFS * MOSUNNY   72  36  26 NW8G15    30.12F
CRESTON *      SUNNY     72  34  25 NW9       30.11F
HARLAN  *      CLOUDY    72  32  23 VRB5G17   30.14F
LAMONI         SUNNY     72  33  24 N13G21    30.09F
6HR MIN TEMP:  45; 6HR MAX TEMP:  72;

RED OAK *      MOSUNNY   73  32  21 VRB5      30.11F
SHENANDOAH *   MOSUNNY   73  30  20 VRB5      30.11F
$$

IAZ047>049-059>061-072>074-084-241900-
   CENTRAL IOWA

CITY           SKY/WX    TMP DP  RH WIND       PRES   REMARKS
AMES           MOSUNNY   72  33  24 NW15      30.10F
6HR MIN TEMP:  45; 6HR MAX TEMP:  72;

ANKENY *       PTSUNNY   72  32  23 NW12      30.10F
BOONE *        SUNNY     70  36  28 VRB7G17   30.10F
CHARITON *     SUNNY     72  32  23 VRB7G16   30.09F
DES MOINES     CLOUDY    73  33  23 N5        30.09F
6HR MIN TEMP:  47; 6HR MAX TEMP:  73;

GRINNELL*      MOSUNNY   71  28  20 NW14      30.09F
KNOXVILLE *    SUNNY     72  28  20 N9        30.08F
MARSHALLTOWN   SUNNY     71  34  25 N13       30.08F
6HR MIN TEMP:  41; 6HR MAX TEMP:  72;

NEWTON *       CLOUDY    70  28  21 CALM      30.09F
PELLA *        SUNNY     73  27  17 N10       30.09F
$$

IAZ004>006-015-016-023>025-035-036-241900-
   NORTH CENTRAL IOWA

CITY           SKY/WX    TMP DP  RH WIND       PRES   REMARKS
ALGONA *       SUNNY     64  43  45 N10       30.14F
CLARION *      MOSUNNY   66  41  39 NW12      30.12F
ESTHERVILLE    CLOUDY    55  46  71 NW18      30.17S
6HR MIN TEMP:  35; 6HR MAX TEMP:  61;

FORT DODGE *   SUNNY     68  43  40 VRB6      30.13F
MASON CITY     SUNNY     67  43  41 NW12      30.13F
6HR MIN TEMP:  41; 6HR MAX TEMP:  68;

FOREST CITY *  FAIR      66  41  39 NW13      30.12F
WEBSTER CITY * MOSUNNY   70  39  32 N10G18    30.10F
IOWA FALLS *   FAIR      70  39  32 NW14G20   30.12F
$$

IAZ007>011-017>019-026>030-037>042-050>054-066-241900-
   NORTHEAST IOWA

CITY           SKY/WX    TMP DP  RH WIND       PRES   REMARKS
CEDAR RAPIDS   FAIR      72  29  20 N12       30.06F
6HR MIN TEMP:  40; 6HR MAX TEMP:  73;

CHARLES CITY * FAIR      70  36  28 N9        30.10F
CLINTON *      FAIR      71  28  20 NE15      30.04F
DECORAH *      FAIR      68  36  30 NW8G17    30.07F
DUBUQUE        FAIR      69  31  24 N8        30.06F
6HR MIN TEMP:  44; 6HR MAX TEMP:  69;

MONTICELLO *   FAIR      72  25  17 N12G17    30.05F
OELWEIN *      FAIR      70  32  24 N12       30.08F
WATERLOO       FAIR      67  35  30 NW12G17   30.07F
6HR MIN TEMP:  37; 6HR MAX TEMP:  71;

$$

IAZ064-065-067-068-078-241900-
   EAST CENTRAL IOWA

CITY           SKY/WX    TMP DP  RH WIND       PRES   REMARKS
DAVENPORT      FAIR      71  22  15 MISG      30.06F
6HR MIN TEMP:  50; 6HR MAX TEMP:  71;

IOWA CITY      FAIR      71  28  20 MISG      30.07F
6HR MIN TEMP:  41; 6HR MAX TEMP:  72;

MT. PLEASANT * SUNNY     70  28  21 NW13      30.05F
MUSCATINE *    FAIR      72  21  15 N10       30.05F
QUAD CITIES    FAIR      72  29  20 N9        30.02F
6HR MIN TEMP:  45; 6HR MAX TEMP:  72;

$$

IAZ062-063-075>077-085>089-095>099-241900-
   SOUTHEAST IOWA

CITY           SKY/WX    TMP DP  RH WIND       PRES   REMARKS
BURLINGTON     SUNNY     71  33  24 N10       30.04F
6HR MIN TEMP:  50; 6HR MAX TEMP:  71;

FAIRFIELD *    SUNNY     70  30  23 N9G18     30.06F
FORT MADISON * SUNNY     70  34  26 N6        30.06S
KEOKUK *       SUNNY     70  36  28 N9        30.04F
OSKALOOSA *    FAIR      73  27  18 N8        30.07F
CENTERVILLE *    N/A     72  28  20 N9        30.09F
OTTUMWA        SUNNY     72  30  21 N10G17    30.06F
6HR MIN TEMP:  40; 6HR MAX TEMP:  73;

WASHINGTON *   SUNNY     72  28  20 N15       30.07F
$$

ABBREVIATIONS USED IN REMARKS
   TC - TEMPERATURES IN CELSIUS
  WCI - WIND CHILL INDEX
   HX - HEAT INDEX
  VSB - VISIBILITY
$$




USA.gov is the U.S. government's official web portal to all federal, state and local government web resources and services.